STARLINK-35415, 65885

Orbit data source: Space-Track

STARLINK-35415, 65885 is a payload satellite owned by SpaceX/Seattle (US) in LEO that was launched on Tue, 07 Oct 2025 UTC via an FALCON 9 launch vehicle from the Air Force Eastern Test Range (AFETR). Payload-class satellites include a variety of spacecraft equipped with specific instruments for various scientific and technological missions. These include communications satellites like Starlink; space stations such as the ISS; scientific satellites like the Hubble; Earth observation satellites from companies like Planet Labs, Umbra, and HawkEye 360; GPS; miniature CubeSats for education and research; and military/defense satellites.

Loading next visibility...
Identifier
65885, 2025-224D
Orbit
LEO
Country
Flag of USUS
Related business
Manufacturer
SpaceX/Seattle
Mission
Operational spacecraft
Bus & Motor
STARLINK V2MO, Unknown motor
Mass
575 kg wet, ~530 kg dry
Launch date (UTC)
2025-10-07 (2 weeks ago)
Launch vehicle
FALCON 9
Launch site
Air Force Eastern Test Range (AFETR)
Object type
Payload
Rocket body
Debris
Shape & HBR
Unknown
Radar Cross Section
RCS unknown

Expand to show TLE details & history
Last TLE update: 8 hours ago

TLE from 8 hours ago
0 STARLINK-35415
1 65885U 25224D   25292.91670139 -.01446343  00000-0 -85820-2 0  9995
2 65885  53.1515 310.1719 0001168  95.6392 213.8968 15.80063518  3159
Epoch: 2025-10-19T22:00Z
TLE epoch observation values (Epoch: 2025-10-19T22:00:03.000Z)
Latitude
-38.32387°
Longitude
-84.55527°
Altitude
343.382 km
Speed
7.702 km/s
True Right ascension
18h 16m 20s
True Declination
-38° 08' 47"
Sunlit
Object was in daylight at epoch
Visualization orbit readout
Latitude
Unknown
Longitude
Unknown
Altitude
Unknown
Speed
Unknown
Apparent Right ascension
Unknown
Apparent Declination
Unknown
Sunlit
N/A
Visualization observer readout
Local Sidereal Time
00:37:46
Azimuth
Unknown
Elevation
Unknown
Doppler factor
Unknown
Orbital elements
Apogee altitude
331.308 km
Perigee altitude
329.74 km
Semi-major axis
6,708.661 km
Eccentricity
0.00012
Inclination
53.1515°
RAAN
310.1719°
Arg. of periapsis
95.6392°
True anomaly
213.88934°
Mean anomaly
213.8968°
Eccentric anomaly
213.89307°
Mean motion
3.94993 °/min
Orbital period
91.14 mins
BSTAR
-0.008582
Loading maneuver chart data...
Computing Atmospheric mass density...
Loading historical data...
Loading historical data...
Loading historical data...
Loading historical data...
Loading historical data...
Loading historical data...
Loading historical data...

Documentation

Showing up to 5 results
|